Time,TemperatureF,DewpointF,PressureIn,WindDirection,WindDirectionDegrees,WindSpeedMPH,WindSpeedGustMPH,Humidity,HourlyPrecipIn,Conditions,Clouds,dailyrainin,SoftwareType,DateUTC
2013-06-29 00:00:00,72.4,70.9,29.83,West,279,0.0,1.0,95,0.00,,,0.00,WeatherCatV1.02B3,2013-06-29 05:00:00,
2013-06-29 00:05:00,72.3,70.8,29.83,West,271,0.0,4.0,95,0.00,,,0.00,WeatherCatV1.02B3,2013-06-29 05:05:00,
2013-06-29 00:10:00,72.2,70.7,29.83,SW,219,0.0,0.0,95,0.00,,,0.00,WeatherCatV1.02B3,2013-06-29 05:10:00,
2013-06-29 00:15:00,72.3,70.8,29.83,SW,215,0.0,1.0,95,0.00,,,0.00,WeatherCatV1.02B3,2013-06-29 05:15:00,
2013-06-29 00:20:00,72.2,70.7,29.83,SW,215,0.0,2.0,95,0.00,,,0.00,WeatherCatV1.02B3,2013-06-29 05:20:00,
2013-06-29 00:25:00,72.2,70.7,29.82,SW,215,0.0,0.0,95,0.00,,,0.00,WeatherCatV1.02B3,2013-06-29 05:25:00,
2013-06-29 00:30:00,72.2,70.7,29.82,SW,215,0.0,2.0,95,0.00,,,0.00,WeatherCatV1.02B3,2013-06-29 05:30:00,
2013-06-29 00:35:00,72.1,70.6,29.81,SW,215,0.0,1.0,95,0.00,,,0.00,WeatherCatV1.02B3,2013-06-29 05:35:00,
2013-06-29 00:40:00,72.1,70.6,29.81,SW,215,0.0,1.0,95,0.00,,,0.00,WeatherCatV1.02B3,2013-06-29 05:40:00,
2013-06-29 00:45:00,72.0,70.5,29.81,SW,215,0.0,1.0,95,0.00,,,0.00,WeatherCatV1.02B3,2013-06-29 05:45:00,
2013-06-29 00:50:00,72.0,70.5,29.81,SW,215,0.0,0.0,95,0.00,,,0.00,WeatherCatV1.02B3,2013-06-29 05:50:00,
2013-06-29 00:55:00,71.9,70.4,29.81,SW,215,0.0,0.0,95,0.00,,,0.00,WeatherCatV1.02B3,2013-06-29 05:55:00,
2013-06-29 01:00:00,71.9,70.4,29.81,SW,215,0.0,1.0,95,0.00,,,0.00,WeatherCatV1.02B3,2013-06-29 06:00:00,
2013-06-29 01:05:00,71.7,70.2,29.81,SW,215,0.0,1.0,95,0.00,,,0.00,WeatherCatV1.02B3,2013-06-29 06:05:00,
2013-06-29 01:10:00,71.6,70.1,29.80,SW,215,0.0,0.0,95,0.00,,,0.00,WeatherCatV1.02B3,2013-06-29 06:10:00,
2013-06-29 01:15:00,71.7,70.2,29.80,SW,215,0.0,0.0,95,0.00,,,0.00,WeatherCatV1.02B3,2013-06-29 06:15:00,
2013-06-29 01:20:00,71.7,70.2,29.80,SW,215,0.0,0.0,95,0.00,,,0.00,WeatherCatV1.02B3,2013-06-29 06:20:00,
2013-06-29 01:25:00,71.7,70.2,29.80,SW,215,0.0,0.0,95,0.00,,,0.00,WeatherCatV1.02B3,2013-06-29 06:25:00,
2013-06-29 01:30:00,71.6,70.1,29.80,SW,215,0.0,0.0,95,0.00,,,0.00,WeatherCatV1.02B3,2013-06-29 06:30:00,
2013-06-29 01:35:00,71.5,70.0,29.80,SW,215,0.0,0.0,95,0.00,,,0.00,WeatherCatV1.02B3,2013-06-29 06:35:00,
2013-06-29 01:40:00,71.5,70.0,29.80,SW,215,0.0,0.0,95,0.00,,,0.00,WeatherCatV1.02B3,2013-06-29 06:40:00,
2013-06-29 01:45:00,71.4,69.9,29.80,SW,215,0.0,1.0,95,0.00,,,0.00,WeatherCatV1.02B3,2013-06-29 06:45:00,
2013-06-29 01:50:00,71.4,69.9,29.79,SW,215,0.0,0.0,95,0.00,,,0.00,WeatherCatV1.02B3,2013-06-29 06:50:00,
2013-06-29 01:55:00,71.4,69.9,29.79,SW,215,0.0,0.0,95,0.00,,,0.00,WeatherCatV1.02B3,2013-06-29 06:55:00,
2013-06-29 02:00:00,71.4,69.9,29.79,SW,215,0.0,0.0,95,0.00,,,0.00,WeatherCatV1.02B3,2013-06-29 07:00:00,
2013-06-29 02:05:00,71.3,69.8,29.79,SW,215,0.0,1.0,95,0.00,,,0.00,WeatherCatV1.02B3,2013-06-29 07:05:00,
2013-06-29 02:10:00,71.3,69.8,29.79,SW,215,0.0,0.0,95,0.00,,,0.00,WeatherCatV1.02B3,2013-06-29 07:10:00,
2013-06-29 02:15:00,71.2,69.7,29.79,SW,215,0.0,0.0,95,0.00,,,0.00,WeatherCatV1.02B3,2013-06-29 07:15:00,
2013-06-29 02:20:00,71.1,69.6,29.78,SW,215,0.0,0.0,95,0.00,,,0.00,WeatherCatV1.02B3,2013-06-29 07:20:00,
2013-06-29 02:25:00,71.0,69.5,29.78,SW,215,0.0,1.0,95,0.00,,,0.00,WeatherCatV1.02B3,2013-06-29 07:25:00,
2013-06-29 02:30:00,71.0,69.5,29.78,SW,215,0.0,0.0,95,0.00,,,0.00,WeatherCatV1.02B3,2013-06-29 07:30:00,
2013-06-29 02:35:00,70.9,69.4,29.78,SW,215,0.0,0.0,95,0.00,,,0.00,WeatherCatV1.02B3,2013-06-29 07:35:00,
2013-06-29 02:40:00,71.0,69.5,29.78,SW,215,0.0,1.0,95,0.00,,,0.00,WeatherCatV1.02B3,2013-06-29 07:40:00,
2013-06-29 02:45:00,71.0,69.5,29.78,SW,215,0.0,0.0,95,0.00,,,0.00,WeatherCatV1.02B3,2013-06-29 07:45:00,
2013-06-29 02:50:00,71.0,69.5,29.78,SW,215,0.0,0.0,95,0.00,,,0.00,WeatherCatV1.02B3,2013-06-29 07:50:00,
2013-06-29 02:55:00,71.0,69.5,29.78,SW,215,0.0,0.0,95,0.00,,,0.00,WeatherCatV1.02B3,2013-06-29 07:55:00,
2013-06-29 03:00:00,70.9,69.4,29.78,SW,215,0.0,0.0,95,0.00,,,0.00,WeatherCatV1.02B3,2013-06-29 08:00:00,
2013-06-29 03:05:00,70.8,69.3,29.78,SW,215,0.0,0.0,95,0.00,,,0.00,WeatherCatV1.02B3,2013-06-29 08:05:00,
2013-06-29 03:10:00,70.8,69.3,29.78,SW,215,0.0,0.0,95,0.00,,,0.00,WeatherCatV1.02B3,2013-06-29 08:10:00,
2013-06-29 03:15:00,70.8,69.3,29.78,SW,215,0.0,0.0,95,0.00,,,0.00,WeatherCatV1.02B3,2013-06-29 08:15:00,
2013-06-29 03:20:00,70.8,69.3,29.78,SW,215,0.0,0.0,95,0.00,,,0.00,WeatherCatV1.02B3,2013-06-29 08:20:00,
2013-06-29 03:25:00,70.8,69.3,29.78,SW,215,0.0,0.0,95,0.00,,,0.00,WeatherCatV1.02B3,2013-06-29 08:25:00,
2013-06-29 03:30:00,70.8,69.3,29.78,SW,215,0.0,1.0,95,0.00,,,0.00,WeatherCatV1.02B3,2013-06-29 08:30:00,
2013-06-29 03:35:00,70.7,69.2,29.78,SW,215,0.0,0.0,95,0.00,,,0.00,WeatherCatV1.02B3,2013-06-29 08:35:00,
2013-06-29 03:40:00,70.7,69.2,29.78,SW,215,0.0,0.0,95,0.00,,,0.00,WeatherCatV1.02B3,2013-06-29 08:40:00,
2013-06-29 03:45:00,70.7,69.2,29.78,SW,215,0.0,0.0,95,0.00,,,0.00,WeatherCatV1.02B3,2013-06-29 08:45:00,
2013-06-29 03:50:00,70.7,69.2,29.78,SW,215,0.0,0.0,95,0.00,,,0.00,WeatherCatV1.02B3,2013-06-29 08:50:00,
2013-06-29 03:55:00,70.6,69.1,29.78,SW,215,0.0,0.0,95,0.00,,,0.00,WeatherCatV1.02B3,2013-06-29 08:55:00,
2013-06-29 04:00:00,70.6,69.1,29.78,SW,215,0.0,0.0,95,0.00,,,0.00,WeatherCatV1.02B3,2013-06-29 09:00:00,
2013-06-29 04:05:00,70.5,69.0,29.78,SW,215,0.0,0.0,95,0.00,,,0.00,WeatherCatV1.02B3,2013-06-29 09:05:00,
2013-06-29 04:10:00,70.5,69.0,29.78,SW,215,0.0,0.0,95,0.00,,,0.00,WeatherCatV1.02B3,2013-06-29 09:10:00,
2013-06-29 04:15:00,70.5,69.0,29.78,SW,215,0.0,0.0,95,0.00,,,0.00,WeatherCatV1.02B3,2013-06-29 09:15:00,
2013-06-29 04:20:00,70.5,69.3,29.78,SW,215,0.0,0.0,96,0.00,,,0.00,WeatherCatV1.02B3,2013-06-29 09:20:00,
2013-06-29 04:25:00,70.5,69.0,29.79,SW,215,0.0,0.0,95,0.00,,,0.00,WeatherCatV1.02B3,2013-06-29 09:25:00,
2013-06-29 04:30:00,70.5,69.0,29.79,SW,215,0.0,0.0,95,0.00,,,0.00,WeatherCatV1.02B3,2013-06-29 09:30:00,
2013-06-29 04:35:00,70.6,69.4,29.79,SW,215,0.0,0.0,96,0.00,,,0.00,WeatherCatV1.02B3,2013-06-29 09:35:00,
2013-06-29 04:40:00,70.6,69.1,29.79,SW,215,0.0,0.0,95,0.00,,,0.00,WeatherCatV1.02B3,2013-06-29 09:40:00,
2013-06-29 04:45:00,70.5,69.0,29.78,SW,215,0.0,0.0,95,0.00,,,0.00,WeatherCatV1.02B3,2013-06-29 09:45:00,
2013-06-29 04:50:00,70.5,69.0,29.78,SW,215,0.0,0.0,95,0.00,,,0.00,WeatherCatV1.02B3,2013-06-29 09:50:00,
2013-06-29 04:55:00,70.5,69.3,29.78,SW,215,0.0,0.0,96,0.00,,,0.00,WeatherCatV1.02B3,2013-06-29 09:55:00,
2013-06-29 05:00:00,70.4,69.2,29.78,SW,215,0.0,0.0,96,0.00,,,0.00,WeatherCatV1.02B3,2013-06-29 10:00:00,
2013-06-29 05:05:00,70.4,69.2,29.78,SW,215,0.0,0.0,96,0.00,,,0.00,WeatherCatV1.02B3,2013-06-29 10:05:00,
2013-06-29 05:10:00,70.4,69.2,29.79,SW,215,0.0,0.0,96,0.00,,,0.00,WeatherCatV1.02B3,2013-06-29 10:10:00,
2013-06-29 05:15:00,70.5,69.3,29.79,SW,215,0.0,0.0,96,0.00,,,0.00,WeatherCatV1.02B3,2013-06-29 10:15:00,
2013-06-29 05:20:00,70.4,69.2,29.79,SW,215,0.0,0.0,96,0.00,,,0.00,WeatherCatV1.02B3,2013-06-29 10:20:00,
2013-06-29 05:25:00,70.4,69.2,29.79,SW,215,0.0,0.0,96,0.00,,,0.00,WeatherCatV1.02B3,2013-06-29 10:25:00,
2013-06-29 05:30:00,70.3,69.1,29.79,SW,215,0.0,0.0,96,0.00,,,0.00,WeatherCatV1.02B3,2013-06-29 10:30:00,
2013-06-29 05:35:00,70.3,69.1,29.79,SW,215,0.0,0.0,96,0.00,,,0.00,WeatherCatV1.02B3,2013-06-29 10:35:00,
2013-06-29 05:40:00,70.2,69.0,29.79,SW,215,0.0,0.0,96,0.00,,,0.00,WeatherCatV1.02B3,2013-06-29 10:40:00,
2013-06-29 05:45:00,70.2,69.0,29.79,SW,215,0.0,0.0,96,0.00,,,0.00,WeatherCatV1.02B3,2013-06-29 10:45:00,
2013-06-29 05:50:00,70.2,69.0,29.79,SW,215,0.0,0.0,96,0.00,,,0.00,WeatherCatV1.02B3,2013-06-29 10:50:00,
2013-06-29 05:55:00,70.2,68.7,29.79,SW,215,0.0,0.0,95,0.00,,,0.00,WeatherCatV1.02B3,2013-06-29 10:55:00,
2013-06-29 06:00:00,70.1,68.6,29.79,SW,215,0.0,0.0,95,0.00,,,0.00,WeatherCatV1.02B3,2013-06-29 11:00:00,
2013-06-29 06:05:00,70.1,68.6,29.79,SW,215,0.0,0.0,95,0.00,,,0.00,WeatherCatV1.02B3,2013-06-29 11:05:00,
2013-06-29 06:10:00,70.1,68.6,29.79,SW,215,0.0,0.0,95,0.00,,,0.00,WeatherCatV1.02B3,2013-06-29 11:10:00,
2013-06-29 06:15:00,70.1,68.9,29.80,SW,215,0.0,0.0,96,0.00,,,0.00,WeatherCatV1.02B3,2013-06-29 11:15:00,
2013-06-29 06:20:00,70.2,69.0,29.80,SW,215,0.0,0.0,96,0.00,,,0.00,WeatherCatV1.02B3,2013-06-29 11:20:00,
2013-06-29 06:25:00,70.3,69.1,29.80,SW,215,0.0,0.0,96,0.00,,,0.00,WeatherCatV1.02B3,2013-06-29 11:25:00,
2013-06-29 06:30:00,70.3,69.1,29.80,SW,215,0.0,0.0,96,0.00,,,0.00,WeatherCatV1.02B3,2013-06-29 11:30:00,
2013-06-29 06:35:00,70.4,69.2,29.80,SW,215,0.0,0.0,96,0.00,,,0.00,WeatherCatV1.02B3,2013-06-29 11:35:00,
2013-06-29 06:40:00,70.5,69.3,29.81,SW,215,0.0,0.0,96,0.00,,,0.00,WeatherCatV1.02B3,2013-06-29 11:40:00,
2013-06-29 06:45:00,70.6,69.4,29.80,SW,215,0.0,0.0,96,0.00,,,0.00,WeatherCatV1.02B3,2013-06-29 11:45:00,
2013-06-29 06:50:00,70.8,69.6,29.80,SW,215,0.0,0.0,96,0.00,,,0.00,WeatherCatV1.02B3,2013-06-29 11:50:00,
2013-06-29 06:55:00,71.0,69.8,29.80,SW,215,0.0,0.0,96,0.00,,,0.00,WeatherCatV1.02B3,2013-06-29 11:55:00,
2013-06-29 07:00:00,71.1,69.9,29.80,SW,215,0.0,0.0,96,0.00,,,0.00,WeatherCatV1.02B3,2013-06-29 12:00:00,
2013-06-29 07:05:00,71.4,70.2,29.80,SW,215,0.0,0.0,96,0.00,,,0.00,WeatherCatV1.02B3,2013-06-29 12:05:00,
2013-06-29 07:10:00,71.6,70.4,29.80,SW,215,0.0,0.0,96,0.00,,,0.00,WeatherCatV1.02B3,2013-06-29 12:10:00,
2013-06-29 07:15:00,71.9,70.7,29.80,SW,215,0.0,0.0,96,0.00,,,0.00,WeatherCatV1.02B3,2013-06-29 12:15:00,
2013-06-29 07:20:00,72.1,70.9,29.81,SW,215,0.0,0.0,96,0.00,,,0.00,WeatherCatV1.02B3,2013-06-29 12:20:00,
2013-06-29 07:25:00,72.2,71.0,29.80,SW,215,0.0,0.0,96,0.00,,,0.00,WeatherCatV1.02B3,2013-06-29 12:25:00,
2013-06-29 07:30:00,72.5,71.3,29.80,SW,215,0.0,0.0,96,0.00,,,0.00,WeatherCatV1.02B3,2013-06-29 12:30:00,
2013-06-29 07:35:00,72.6,71.4,29.81,SW,215,0.0,0.0,96,0.00,,,0.00,WeatherCatV1.02B3,2013-06-29 12:35:00,
2013-06-29 07:40:00,72.8,71.6,29.81,SW,215,0.0,0.0,96,0.00,,,0.00,WeatherCatV1.02B3,2013-06-29 12:40:00,
2013-06-29 07:45:00,73.0,71.8,29.81,SW,215,0.0,0.0,96,0.00,,,0.00,WeatherCatV1.02B3,2013-06-29 12:45:00,
2013-06-29 07:50:00,73.1,71.9,29.81,SW,215,0.0,0.0,96,0.00,,,0.00,WeatherCatV1.02B3,2013-06-29 12:50:00,
2013-06-29 07:55:00,73.2,72.0,29.81,SW,215,0.0,0.0,96,0.00,,,0.00,WeatherCatV1.02B3,2013-06-29 12:55:00,
2013-06-29 08:00:00,73.2,72.0,29.80,SW,215,0.0,0.0,96,0.00,,,0.00,WeatherCatV1.02B3,2013-06-29 13:00:00,
2013-06-29 08:05:00,73.3,72.1,29.80,SW,215,0.0,0.0,96,0.00,,,0.00,WeatherCatV1.02B3,2013-06-29 13:05:00,
2013-06-29 08:10:00,73.4,72.2,29.80,SW,215,0.0,0.0,96,0.00,,,0.00,WeatherCatV1.02B3,2013-06-29 13:10:00,
2013-06-29 08:15:00,73.5,72.3,29.79,SW,215,0.0,0.0,96,0.00,,,0.00,WeatherCatV1.02B3,2013-06-29 13:15:00,
2013-06-29 08:20:00,73.8,72.6,29.80,SW,215,0.0,0.0,96,0.00,,,0.00,WeatherCatV1.02B3,2013-06-29 13:20:00,
2013-06-29 08:25:00,74.0,72.8,29.79,SW,215,0.0,0.0,96,0.00,,,0.00,WeatherCatV1.02B3,2013-06-29 13:25:00,
2013-06-29 08:30:00,74.2,73.0,29.80,SW,215,0.0,0.0,96,0.00,,,0.00,WeatherCatV1.02B3,2013-06-29 13:30:00,
2013-06-29 08:35:00,74.5,73.3,29.80,SW,215,0.0,0.0,96,0.00,,,0.00,WeatherCatV1.02B3,2013-06-29 13:35:00,
2013-06-29 08:40:00,74.7,73.5,29.80,SW,215,0.0,0.0,96,0.00,,,0.00,WeatherCatV1.02B3,2013-06-29 13:40:00,
2013-06-29 08:45:00,75.0,73.5,29.80,SW,215,0.0,0.0,95,0.00,,,0.00,WeatherCatV1.02B3,2013-06-29 13:45:00,
2013-06-29 08:50:00,75.3,73.8,29.80,SW,215,0.0,0.0,95,0.00,,,0.00,WeatherCatV1.02B3,2013-06-29 13:50:00,
2013-06-29 08:55:00,75.7,73.8,29.79,SW,215,0.0,0.0,94,0.00,,,0.00,WeatherCatV1.02B3,2013-06-29 13:55:00,
2013-06-29 09:00:00,76.1,73.6,29.80,SW,215,0.0,0.0,92,0.00,,,0.00,WeatherCatV1.02B3,2013-06-29 14:00:00,
2013-06-29 09:05:00,76.6,74.1,29.79,SW,215,0.0,0.0,92,0.00,,,0.00,WeatherCatV1.02B3,2013-06-29 14:05:00,
2013-06-29 09:10:00,77.0,74.2,29.79,SW,215,0.0,0.0,91,0.00,,,0.00,WeatherCatV1.02B3,2013-06-29 14:10:00,
2013-06-29 09:15:00,77.5,74.0,29.79,SW,215,0.0,0.0,89,0.00,,,0.00,WeatherCatV1.02B3,2013-06-29 14:15:00,
2013-06-29 09:20:00,78.0,74.1,29.79,SW,215,0.0,0.0,88,0.00,,,0.00,WeatherCatV1.02B3,2013-06-29 14:20:00,
2013-06-29 09:25:00,78.6,74.4,29.79,SW,215,0.0,0.0,87,0.00,,,0.00,WeatherCatV1.02B3,2013-06-29 14:25:00,
2013-06-29 09:30:00,79.1,74.5,29.79,SW,215,0.0,0.0,86,0.00,,,0.00,WeatherCatV1.02B3,2013-06-29 14:30:00,
2013-06-29 09:35:00,79.5,74.6,29.80,SE,144,0.0,0.0,85,0.00,,,0.00,WeatherCatV1.02B3,2013-06-29 14:35:00,
2013-06-29 09:40:00,79.8,74.9,29.79,SE,131,0.0,0.0,85,0.00,,,0.00,WeatherCatV1.02B3,2013-06-29 14:40:00,
2013-06-29 09:45:00,79.9,74.6,29.79,SE,128,0.0,0.0,84,0.00,,,0.00,WeatherCatV1.02B3,2013-06-29 14:45:00,
2013-06-29 09:50:00,80.3,75.0,29.80,SE,127,0.0,0.0,84,0.00,,,0.00,WeatherCatV1.02B3,2013-06-29 14:50:00,
2013-06-29 09:55:00,80.6,74.9,29.80,SE,127,0.0,0.0,83,0.00,,,0.00,WeatherCatV1.02B3,2013-06-29 14:55:00,
2013-06-29 10:00:00,80.9,75.2,29.80,SE,127,0.0,0.0,83,0.00,,,0.00,WeatherCatV1.02B3,2013-06-29 15:00:00,
2013-06-29 10:05:00,81.2,75.2,29.80,SE,127,0.0,0.0,82,0.00,,,0.00,WeatherCatV1.02B3,2013-06-29 15:05:00,
2013-06-29 10:10:00,81.6,75.9,29.80,SE,127,0.0,0.0,83,0.00,,,0.00,WeatherCatV1.02B3,2013-06-29 15:10:00,
2013-06-29 10:15:00,81.9,76.6,29.80,SE,128,0.0,0.0,84,0.00,,,0.00,WeatherCatV1.02B3,2013-06-29 15:15:00,
2013-06-29 10:20:00,82.3,76.6,29.80,SE,136,0.0,0.0,83,0.00,,,0.00,WeatherCatV1.02B3,2013-06-29 15:20:00,
2013-06-29 10:25:00,82.6,76.9,29.79,SE,141,0.0,2.0,83,0.00,,,0.00,WeatherCatV1.02B3,2013-06-29 15:25:00,
2013-06-29 10:30:00,82.9,76.8,29.80,SSE,148,0.0,2.0,82,0.00,,,0.00,WeatherCatV1.02B3,2013-06-29 15:30:00,
2013-06-29 10:35:00,83.0,76.2,29.79,SSE,157,0.0,1.0,80,0.00,,,0.00,WeatherCatV1.02B3,2013-06-29 15:35:00,
2013-06-29 10:40:00,83.2,76.4,29.79,SSE,161,0.0,0.0,80,0.00,,,0.00,WeatherCatV1.02B3,2013-06-29 15:40:00,
2013-06-29 10:45:00,83.3,75.7,29.80,SSE,164,0.0,1.0,78,0.00,,,0.00,WeatherCatV1.02B3,2013-06-29 15:45:00,
2013-06-29 10:50:00,83.3,75.3,29.80,South,180,0.0,0.0,77,0.00,,,0.00,WeatherCatV1.02B3,2013-06-29 15:50:00,
2013-06-29 10:55:00,83.5,75.1,29.80,SSW,212,0.0,1.0,76,0.00,,,0.00,WeatherCatV1.02B3,2013-06-29 15:55:00,
2013-06-29 11:00:00,83.7,76.1,29.79,SW,222,0.0,0.0,78,0.00,,,0.00,WeatherCatV1.02B3,2013-06-29 16:00:00,
2013-06-29 11:05:00,83.8,76.2,29.79,SW,223,0.0,0.0,78,0.00,,,0.00,WeatherCatV1.02B3,2013-06-29 16:05:00,
2013-06-29 11:10:00,84.2,76.6,29.79,SW,223,0.0,0.0,78,0.00,,,0.00,WeatherCatV1.02B3,2013-06-29 16:10:00,
2013-06-29 11:15:00,84.6,75.8,29.79,West,265,0.0,1.0,75,0.00,,,0.00,WeatherCatV1.02B3,2013-06-29 16:15:00,
2013-06-29 11:20:00,85.0,75.8,29.79,WNW,288,0.0,0.0,74,0.00,,,0.00,WeatherCatV1.02B3,2013-06-29 16:20:00,
2013-06-29 11:25:00,85.5,75.8,29.79,WNW,295,0.0,0.0,73,0.00,,,0.00,WeatherCatV1.02B3,2013-06-29 16:25:00,
2013-06-29 11:30:00,85.5,75.4,29.79,WNW,295,0.0,0.0,72,0.00,,,0.00,WeatherCatV1.02B3,2013-06-29 16:30:00,
2013-06-29 11:35:00,85.7,75.6,29.79,WNW,296,0.0,0.0,72,0.00,,,0.00,WeatherCatV1.02B3,2013-06-29 16:35:00,
2013-06-29 11:40:00,85.8,75.7,29.79,WNW,296,0.0,0.0,72,0.00,,,0.00,WeatherCatV1.02B3,2013-06-29 16:40:00,
2013-06-29 11:45:00,85.9,76.2,29.79,WNW,301,0.0,0.0,73,0.00,,,0.00,WeatherCatV1.02B3,2013-06-29 16:45:00,
2013-06-29 11:50:00,85.8,75.3,29.79,WNW,303,0.0,1.0,71,0.00,,,0.00,WeatherCatV1.02B3,2013-06-29 16:50:00,
2013-06-29 11:55:00,85.9,75.4,29.79,NNW,335,0.0,1.0,71,0.00,,,0.00,WeatherCatV1.02B3,2013-06-29 16:55:00,
2013-06-29 12:00:00,86.5,75.5,29.79,North,351,0.0,0.0,70,0.00,,,0.00,WeatherCatV1.02B3,2013-06-29 17:00:00,
2013-06-29 12:05:00,86.6,75.6,29.79,NNE,20,0.0,0.0,70,0.00,,,0.00,WeatherCatV1.02B3,2013-06-29 17:05:00,
2013-06-29 12:10:00,86.6,75.6,29.79,NNE,20,0.0,0.0,70,0.00,,,0.00,WeatherCatV1.02B3,2013-06-29 17:10:00,
2013-06-29 12:15:00,86.7,75.7,29.78,NNE,28,0.0,0.0,70,0.00,,,0.00,WeatherCatV1.02B3,2013-06-29 17:15:00,
2013-06-29 12:20:00,87.0,76.4,29.78,North,6,0.0,1.0,71,0.00,,,0.00,WeatherCatV1.02B3,2013-06-29 17:20:00,
2013-06-29 12:25:00,87.2,76.2,29.78,NNW,345,0.0,0.0,70,0.00,,,0.00,WeatherCatV1.02B3,2013-06-29 17:25:00,
2013-06-29 12:30:00,87.4,76.4,29.78,NNW,341,0.0,1.0,70,0.00,,,0.00,WeatherCatV1.02B3,2013-06-29 17:30:00,
2013-06-29 12:35:00,87.7,76.2,29.78,NNW,340,0.0,1.0,69,0.00,,,0.00,WeatherCatV1.02B3,2013-06-29 17:35:00,
2013-06-29 12:40:00,88.0,76.9,29.78,NNW,337,0.0,0.0,70,0.00,,,0.00,WeatherCatV1.02B3,2013-06-29 17:40:00,
2013-06-29 12:45:00,88.2,76.7,29.78,NNW,335,0.0,2.0,69,0.00,,,0.00,WeatherCatV1.02B3,2013-06-29 17:45:00,
2013-06-29 12:50:00,88.1,76.2,29.78,NNW,337,0.0,2.0,68,0.00,,,0.00,WeatherCatV1.02B3,2013-06-29 17:50:00,
2013-06-29 12:55:00,87.5,74.7,29.78,North,349,0.0,2.0,66,0.00,,,0.00,WeatherCatV1.02B3,2013-06-29 17:55:00,
2013-06-29 13:00:00,87.2,74.9,29.77,NNW,336,1.0,2.0,67,0.00,,,0.00,WeatherCatV1.02B3,2013-06-29 18:00:00,
2013-06-29 13:05:00,87.7,75.3,29.77,NNE,32,1.0,3.0,67,0.00,,,0.00,WeatherCatV1.02B3,2013-06-29 18:05:00,
2013-06-29 13:10:00,88.2,74.9,29.77,NNE,20,0.0,2.0,65,0.00,,,0.00,WeatherCatV1.02B3,2013-06-29 18:10:00,
2013-06-29 13:15:00,88.5,75.7,29.77,NNE,32,1.0,1.0,66,0.00,,,0.00,WeatherCatV1.02B3,2013-06-29 18:15:00,
2013-06-29 13:20:00,88.7,73.5,29.77,NNE,28,1.0,0.0,61,0.00,,,0.00,WeatherCatV1.02B3,2013-06-29 18:20:00,
2013-06-29 13:25:00,89.2,74.9,29.77,NNE,23,1.0,1.0,63,0.00,,,0.00,WeatherCatV1.02B3,2013-06-29 18:25:00,
2013-06-29 13:30:00,89.3,73.1,29.77,North,1,1.0,3.0,59,0.00,,,0.00,WeatherCatV1.02B3,2013-06-29 18:30:00,
2013-06-29 13:35:00,88.8,72.1,29.77,NNW,343,1.0,3.0,58,0.00,,,0.00,WeatherCatV1.02B3,2013-06-29 18:35:00,
2013-06-29 13:40:00,88.7,72.5,29.76,NW,324,2.0,4.0,59,0.00,,,0.00,WeatherCatV1.02B3,2013-06-29 18:40:00,
2013-06-29 13:45:00,89.0,72.3,29.76,NNW,342,1.0,3.0,58,0.00,,,0.00,WeatherCatV1.02B3,2013-06-29 18:45:00,
2013-06-29 13:50:00,89.3,71.5,29.76,NNW,345,1.0,1.0,56,0.00,,,0.00,WeatherCatV1.02B3,2013-06-29 18:50:00,
2013-06-29 13:55:00,89.4,73.1,29.76,NNW,331,1.0,4.0,59,0.00,,,0.00,WeatherCatV1.02B3,2013-06-29 18:55:00,
2013-06-29 14:00:00,89.9,72.6,29.76,ENE,61,0.0,1.0,57,0.00,,,0.00,WeatherCatV1.02B3,2013-06-29 19:00:00,
2013-06-29 14:05:00,89.9,73.1,29.76,North,352,1.0,2.0,58,0.00,,,0.00,WeatherCatV1.02B3,2013-06-29 19:05:00,
2013-06-29 14:10:00,90.4,74.1,29.76,NE,45,1.0,0.0,59,0.00,,,0.00,WeatherCatV1.02B3,2013-06-29 19:10:00,
2013-06-29 14:15:00,90.2,73.9,29.76,NNE,30,1.0,2.0,59,0.00,,,0.00,WeatherCatV1.02B3,2013-06-29 19:15:00,
2013-06-29 14:20:00,90.6,73.2,29.76,NE,37,1.0,6.0,57,0.00,,,0.00,WeatherCatV1.02B3,2013-06-29 19:20:00,
2013-06-29 14:25:00,90.2,73.9,29.76,East,79,1.0,6.0,59,0.00,,,0.00,WeatherCatV1.02B3,2013-06-29 19:25:00,
2013-06-29 14:30:00,89.6,72.8,29.75,ENE,63,1.0,1.0,58,0.00,,,0.00,WeatherCatV1.02B3,2013-06-29 19:30:00,
2013-06-29 14:35:00,90.2,74.9,29.75,ENE,77,0.0,3.0,61,0.00,,,0.00,WeatherCatV1.02B3,2013-06-29 19:35:00,
2013-06-29 14:40:00,90.3,72.9,29.75,NNE,31,1.0,3.0,57,0.00,,,0.00,WeatherCatV1.02B3,2013-06-29 19:40:00,
2013-06-29 14:45:00,90.0,73.2,29.75,North,9,1.0,5.0,58,0.00,,,0.00,WeatherCatV1.02B3,2013-06-29 19:45:00,
2013-06-29 14:50:00,90.0,70.0,29.75,North,3,1.0,1.0,52,0.00,,,0.00,WeatherCatV1.02B3,2013-06-29 19:50:00,
2013-06-29 14:55:00,89.3,71.5,29.75,North,7,1.0,3.0,56,0.00,,,0.00,WeatherCatV1.02B3,2013-06-29 19:55:00,
2013-06-29 15:00:00,89.0,69.6,29.75,NNW,346,1.0,5.0,53,0.00,,,0.00,WeatherCatV1.02B3,2013-06-29 20:00:00,
2013-06-29 15:05:00,89.6,71.3,29.74,NNW,347,1.0,3.0,55,0.00,,,0.00,WeatherCatV1.02B3,2013-06-29 20:05:00,
2013-06-29 15:10:00,89.5,71.7,29.74,NNW,339,1.0,9.0,56,0.00,,,0.00,WeatherCatV1.02B3,2013-06-29 20:10:00,
2013-06-29 15:15:00,90.3,71.3,29.74,North,357,2.0,5.0,54,0.00,,,0.00,WeatherCatV1.02B3,2013-06-29 20:15:00,
2013-06-29 15:20:00,90.6,69.9,29.74,NNW,341,2.0,4.0,51,0.00,,,0.00,WeatherCatV1.02B3,2013-06-29 20:20:00,
2013-06-29 15:25:00,90.5,70.4,29.74,NNW,327,2.0,3.0,52,0.00,,,0.00,WeatherCatV1.02B3,2013-06-29 20:25:00,
2013-06-29 15:30:00,90.4,70.3,29.74,NNW,329,1.0,3.0,52,0.00,,,0.00,WeatherCatV1.02B3,2013-06-29 20:30:00,
2013-06-29 15:35:00,90.6,71.1,29.73,NNE,20,1.0,1.0,53,0.00,,,0.00,WeatherCatV1.02B3,2013-06-29 20:35:00,
2013-06-29 15:40:00,91.7,72.1,29.74,North,7,1.0,2.0,53,0.00,,,0.00,WeatherCatV1.02B3,2013-06-29 20:40:00,
2013-06-29 15:45:00,90.9,71.4,29.73,NNE,13,1.0,6.0,53,0.00,,,0.00,WeatherCatV1.02B3,2013-06-29 20:45:00,
2013-06-29 15:50:00,91.0,72.6,29.74,North,9,1.0,3.0,55,0.00,,,0.00,WeatherCatV1.02B3,2013-06-29 20:50:00,
2013-06-29 15:55:00,91.2,71.6,29.73,North,359,1.0,5.0,53,0.00,,,0.00,WeatherCatV1.02B3,2013-06-29 20:55:00,
2013-06-29 16:00:00,91.1,70.4,29.73,NNW,335,2.0,4.0,51,0.00,,,0.00,WeatherCatV1.02B3,2013-06-29 21:00:00,
2013-06-29 16:05:00,91.5,71.9,29.73,North,10,2.0,5.0,53,0.00,,,0.00,WeatherCatV1.02B3,2013-06-29 21:05:00,
2013-06-29 16:10:00,91.7,69.2,29.73,NNE,19,2.0,2.0,48,0.00,,,0.00,WeatherCatV1.02B3,2013-06-29 21:10:00,
2013-06-29 16:15:00,91.0,69.7,29.73,NNW,331,2.0,5.0,50,0.00,,,0.00,WeatherCatV1.02B3,2013-06-29 21:15:00,
2013-06-29 16:20:00,90.6,69.9,29.72,North,354,2.0,4.0,51,0.00,,,0.00,WeatherCatV1.02B3,2013-06-29 21:20:00,
2013-06-29 16:25:00,91.3,70.0,29.72,North,358,2.0,0.0,50,0.00,,,0.00,WeatherCatV1.02B3,2013-06-29 21:25:00,
2013-06-29 16:30:00,90.5,69.3,29.73,North,4,1.0,4.0,50,0.00,,,0.00,WeatherCatV1.02B3,2013-06-29 21:30:00,
2013-06-29 16:41:00,91.0,69.1,29.72,NE,45,1.0,1.0,49,0.00,,,0.00,WeatherCatV1.02B3,2013-06-29 21:41:00,
2013-06-29 16:46:00,90.4,67.4,29.73,NW,315,3.0,4.0,47,0.00,,,0.01,WeatherCatV1.02B3,2013-06-29 21:46:00,
2013-06-29 16:51:00,90.0,66.4,29.72,NNE,24,4.0,7.0,46,0.00,,,0.01,WeatherCatV1.02B3,2013-06-29 21:51:00,
2013-06-29 16:56:00,89.9,66.9,29.72,WNW,290,1.0,2.0,47,0.00,,,0.01,WeatherCatV1.02B3,2013-06-29 21:56:00,
2013-06-29 17:01:00,90.0,65.8,29.72,NW,325,1.0,7.0,45,0.00,,,0.01,WeatherCatV1.02B3,2013-06-29 22:01:00,
2013-06-29 17:06:00,89.8,66.2,29.72,North,351,1.0,3.0,46,0.00,,,0.01,WeatherCatV1.02B3,2013-06-29 22:06:00,
2013-06-29 17:11:00,90.2,66.6,29.72,NW,323,2.0,6.0,46,0.00,,,0.01,WeatherCatV1.02B3,2013-06-29 22:11:00,
2013-06-29 17:16:00,90.2,65.9,29.72,NNW,348,0.0,2.0,45,0.00,,,0.01,WeatherCatV1.02B3,2013-06-29 22:16:00,
2013-06-29 17:21:00,89.8,65.6,29.72,NNW,329,0.0,3.0,45,0.00,,,0.01,WeatherCatV1.02B3,2013-06-29 22:21:00,
2013-06-29 17:26:00,89.7,65.5,29.72,NW,320,0.0,2.0,45,0.00,,,0.01,WeatherCatV1.02B3,2013-06-29 22:26:00,
2013-06-29 17:31:00,89.6,66.0,29.72,NNE,13,0.0,3.0,46,0.00,,,0.01,WeatherCatV1.02B3,2013-06-29 22:31:00,
2013-06-29 17:36:00,89.7,65.5,29.72,NW,314,0.0,6.0,45,0.00,,,0.01,WeatherCatV1.02B3,2013-06-29 22:36:00,
2013-06-29 17:41:00,89.7,66.1,29.72,East,82,3.0,5.0,46,0.00,,,0.01,WeatherCatV1.02B3,2013-06-29 22:41:00,
2013-06-29 17:46:00,89.2,66.3,29.72,NE,49,0.0,2.0,47,0.00,,,0.01,WeatherCatV1.02B3,2013-06-29 22:46:00,
2013-06-29 17:51:00,89.2,66.9,29.72,East,97,0.0,6.0,48,0.00,,,0.01,WeatherCatV1.02B3,2013-06-29 22:51:00,
2013-06-29 17:56:00,89.1,65.6,29.72,North,5,3.0,6.0,46,0.00,,,0.01,WeatherCatV1.02B3,2013-06-29 22:56:00,
2013-06-29 18:01:00,89.0,66.1,29.72,NNE,28,1.0,4.0,47,0.00,,,0.01,WeatherCatV1.02B3,2013-06-29 23:01:00,
2013-06-29 18:06:00,88.9,66.0,29.72,North,355,0.0,4.0,47,0.00,,,0.01,WeatherCatV1.02B3,2013-06-29 23:06:00,
2013-06-29 18:11:00,88.8,65.9,29.72,ENE,69,3.0,4.0,47,0.00,,,0.01,WeatherCatV1.02B3,2013-06-29 23:11:00,
2013-06-29 18:16:00,88.7,67.0,29.73,ENE,68,0.0,2.0,49,0.00,,,0.01,WeatherCatV1.02B3,2013-06-29 23:16:00,
2013-06-29 18:21:00,88.6,65.7,29.73,NE,46,1.0,5.0,47,0.00,,,0.01,WeatherCatV1.02B3,2013-06-29 23:21:00,
2013-06-29 18:26:00,88.5,65.7,29.73,NE,36,0.0,1.0,47,0.00,,,0.01,WeatherCatV1.02B3,2013-06-29 23:26:00,
2013-06-29 18:31:00,88.4,65.6,29.73,NW,311,0.0,4.0,47,0.00,,,0.01,WeatherCatV1.02B3,2013-06-29 23:31:00,
2013-06-29 18:36:00,88.3,66.7,29.73,North,0,0.0,2.0,49,0.00,,,0.01,WeatherCatV1.02B3,2013-06-29 23:36:00,
2013-06-29 18:41:00,88.0,66.4,29.73,North,0,0.0,1.0,49,0.00,,,0.01,WeatherCatV1.02B3,2013-06-29 23:41:00,
2013-06-29 18:46:00,87.9,65.1,29.73,North,0,0.0,6.0,47,0.00,,,0.01,WeatherCatV1.02B3,2013-06-29 23:46:00,
2013-06-29 18:51:00,87.6,64.8,29.73,North,9,1.0,1.0,47,0.00,,,0.01,WeatherCatV1.02B3,2013-06-29 23:51:00,
2013-06-29 18:56:00,87.4,64.7,29.73,NNE,24,0.0,4.0,47,0.00,,,0.01,WeatherCatV1.02B3,2013-06-29 23:56:00,
2013-06-29 19:01:00,87.1,65.0,29.73,WNW,297,2.0,2.0,48,0.00,,,0.01,WeatherCatV1.02B3,2013-06-30 00:01:00,
2013-06-29 19:06:00,87.0,64.9,29.73,NNE,15,0.0,5.0,48,0.00,,,0.01,WeatherCatV1.02B3,2013-06-30 00:06:00,
2013-06-29 19:11:00,86.8,64.7,29.73,NE,39,1.0,2.0,48,0.00,,,0.01,WeatherCatV1.02B3,2013-06-30 00:11:00,
2013-06-29 19:16:00,86.6,65.1,29.73,NE,39,0.0,0.0,49,0.00,,,0.01,WeatherCatV1.02B3,2013-06-30 00:16:00,
2013-06-29 19:21:00,86.5,65.0,29.73,NE,40,0.0,0.0,49,0.00,,,0.01,WeatherCatV1.02B3,2013-06-30 00:21:00,
2013-06-29 19:26:00,86.3,65.4,29.73,NE,38,0.0,0.0,50,0.00,,,0.01,WeatherCatV1.02B3,2013-06-30 00:26:00,
2013-06-29 19:31:00,86.1,65.3,29.74,NE,39,0.0,2.0,50,0.00,,,0.01,WeatherCatV1.02B3,2013-06-30 00:31:00,
2013-06-29 19:36:00,85.9,65.1,29.74,NNE,17,0.0,0.0,50,0.00,,,0.01,WeatherCatV1.02B3,2013-06-30 00:36:00,
2013-06-29 19:41:00,85.7,65.5,29.74,NNE,17,0.0,1.0,51,0.00,,,0.01,WeatherCatV1.02B3,2013-06-30 00:41:00,
2013-06-29 19:46:00,85.5,65.3,29.74,NNW,348,0.0,1.0,51,0.00,,,0.01,WeatherCatV1.02B3,2013-06-30 00:46:00,
2013-06-29 19:51:00,85.4,66.3,29.74,NNW,348,0.0,0.0,53,0.00,,,0.01,WeatherCatV1.02B3,2013-06-30 00:51:00,
2013-06-29 19:56:00,85.1,65.5,29.74,NNW,327,0.0,1.0,52,0.00,,,0.01,WeatherCatV1.02B3,2013-06-30 00:56:00,
2013-06-29 20:01:00,84.9,65.3,29.75,NNW,327,0.0,1.0,52,0.00,,,0.01,WeatherCatV1.02B3,2013-06-30 01:01:00,
2013-06-29 20:06:00,84.7,65.6,29.74,NNW,327,0.0,0.0,53,0.00,,,0.01,WeatherCatV1.02B3,2013-06-30 01:06:00,
2013-06-29 20:11:00,84.4,65.9,29.74,NNW,327,0.0,0.0,54,0.00,,,0.01,WeatherCatV1.02B3,2013-06-30 01:11:00,
2013-06-29 20:16:00,84.1,65.1,29.75,NNW,327,0.0,0.0,53,0.00,,,0.01,WeatherCatV1.02B3,2013-06-30 01:16:00,
2013-06-29 20:21:00,83.9,64.9,29.75,NW,317,0.0,0.0,53,0.00,,,0.01,WeatherCatV1.02B3,2013-06-30 01:21:00,
2013-06-29 20:26:00,83.7,65.3,29.75,NW,317,0.0,0.0,54,0.00,,,0.01,WeatherCatV1.02B3,2013-06-30 01:26:00,
2013-06-29 20:31:00,83.6,65.7,29.75,NW,317,0.0,0.0,55,0.00,,,0.01,WeatherCatV1.02B3,2013-06-30 01:31:00,
2013-06-29 20:36:00,83.3,65.4,29.75,NW,317,0.0,0.0,55,0.00,,,0.01,WeatherCatV1.02B3,2013-06-30 01:36:00,
2013-06-29 20:41:00,83.0,66.7,29.75,NW,317,0.0,0.0,58,0.00,,,0.01,WeatherCatV1.02B3,2013-06-30 01:41:00,
2013-06-29 20:46:00,82.6,66.3,29.75,NW,317,0.0,0.0,58,0.00,,,0.01,WeatherCatV1.02B3,2013-06-30 01:46:00,
2013-06-29 20:51:00,82.2,67.4,29.75,NW,317,0.0,0.0,61,0.00,,,0.01,WeatherCatV1.02B3,2013-06-30 01:51:00,
2013-06-29 20:53:00,82.1,66.8,29.75,NW,317,0.0,0.0,60,0.00,,,0.01,WeatherCatV1.02B3,2013-06-30 01:53:00,
2013-06-29 20:58:00,81.7,66.4,29.75,NW,317,0.0,0.0,60,0.00,,,0.01,WeatherCatV1.02B3,2013-06-30 01:58:00,
2013-06-29 21:03:00,81.4,67.1,29.75,NW,317,0.0,0.0,62,0.00,,,0.01,WeatherCatV1.02B3,2013-06-30 02:03:00,
2013-06-29 21:08:00,81.0,66.7,29.75,NW,317,0.0,0.0,62,0.00,,,0.01,WeatherCatV1.02B3,2013-06-30 02:08:00,
2013-06-29 21:13:00,80.5,66.3,29.76,NW,317,0.0,0.0,62,0.00,,,0.01,WeatherCatV1.02B3,2013-06-30 02:13:00,
2013-06-29 21:18:00,80.2,66.4,29.76,NW,317,0.0,0.0,63,0.00,,,0.01,WeatherCatV1.02B3,2013-06-30 02:18:00,
2013-06-29 21:23:00,79.9,67.1,29.76,NW,317,0.0,0.0,65,0.00,,,0.01,WeatherCatV1.02B3,2013-06-30 02:23:00,
2013-06-29 21:28:00,79.6,67.2,29.76,NW,317,0.0,0.0,66,0.00,,,0.01,WeatherCatV1.02B3,2013-06-30 02:28:00,
2013-06-29 21:33:00,79.3,66.9,29.76,NW,317,0.0,0.0,66,0.00,,,0.01,WeatherCatV1.02B3,2013-06-30 02:33:00,
2013-06-29 21:38:00,79.0,66.6,29.76,NW,317,0.0,0.0,66,0.00,,,0.01,WeatherCatV1.02B3,2013-06-30 02:38:00,
2013-06-29 21:43:00,78.7,66.8,29.76,NW,317,0.0,0.0,67,0.00,,,0.01,WeatherCatV1.02B3,2013-06-30 02:43:00,
2013-06-29 21:48:00,78.4,66.9,29.76,NW,317,0.0,0.0,68,0.00,,,0.01,WeatherCatV1.02B3,2013-06-30 02:48:00,
2013-06-29 21:53:00,78.2,67.6,29.76,NW,317,0.0,0.0,70,0.00,,,0.01,WeatherCatV1.02B3,2013-06-30 02:53:00,
2013-06-29 21:58:00,77.9,67.3,29.76,NW,317,0.0,0.0,70,0.00,,,0.01,WeatherCatV1.02B3,2013-06-30 02:58:00,
2013-06-29 22:03:00,77.7,67.5,29.77,NW,317,0.0,0.0,71,0.00,,,0.01,WeatherCatV1.02B3,2013-06-30 03:03:00,
2013-06-29 22:08:00,77.5,67.7,29.77,NW,317,0.0,0.0,72,0.00,,,0.01,WeatherCatV1.02B3,2013-06-30 03:08:00,
2013-06-29 22:13:00,77.3,67.6,29.77,NW,317,0.0,0.0,72,0.00,,,0.01,WeatherCatV1.02B3,2013-06-30 03:13:00,
2013-06-29 22:18:00,77.1,67.4,29.77,NW,317,0.0,0.0,72,0.00,,,0.01,WeatherCatV1.02B3,2013-06-30 03:18:00,
2013-06-29 22:23:00,76.9,67.6,29.78,NW,317,0.0,0.0,73,0.00,,,0.01,WeatherCatV1.02B3,2013-06-30 03:23:00,
2013-06-29 22:28:00,76.6,67.3,29.78,NW,317,0.0,0.0,73,0.00,,,0.01,WeatherCatV1.02B3,2013-06-30 03:28:00,
2013-06-29 22:33:00,76.4,67.5,29.78,NW,317,0.0,0.0,74,0.00,,,0.01,WeatherCatV1.02B3,2013-06-30 03:33:00,
2013-06-29 22:38:00,76.3,67.8,29.78,NW,317,0.0,0.0,75,0.00,,,0.01,WeatherCatV1.02B3,2013-06-30 03:38:00,
2013-06-29 22:43:00,76.0,67.5,29.77,NW,317,0.0,0.0,75,0.00,,,0.01,WeatherCatV1.02B3,2013-06-30 03:43:00,
2013-06-29 22:48:00,75.8,67.7,29.78,NW,317,0.0,0.0,76,0.00,,,0.01,WeatherCatV1.02B3,2013-06-30 03:48:00,
2013-06-29 22:53:00,75.6,67.5,29.78,NW,317,0.0,0.0,76,0.00,,,0.01,WeatherCatV1.02B3,2013-06-30 03:53:00,
2013-06-29 22:58:00,75.4,67.3,29.78,NW,317,0.0,0.0,76,0.00,,,0.01,WeatherCatV1.02B3,2013-06-30 03:58:00,
2013-06-29 23:01:00,75.3,67.6,29.78,NW,317,0.0,0.0,77,0.00,,,0.01,WeatherCatV1.02B3,2013-06-30 04:01:00,
2013-06-29 23:06:00,75.0,67.7,29.78,NW,317,0.0,0.0,78,0.00,,,0.01,WeatherCatV1.02B3,2013-06-30 04:06:00,
2013-06-29 23:11:00,74.8,67.5,29.78,NW,317,0.0,0.0,78,0.00,,,0.01,WeatherCatV1.02B3,2013-06-30 04:11:00,
2013-06-29 23:16:00,74.6,67.6,29.78,NW,317,0.0,0.0,79,0.00,,,0.01,WeatherCatV1.02B3,2013-06-30 04:16:00,
2013-06-29 23:21:00,74.4,67.4,29.78,NW,317,0.0,0.0,79,0.00,,,0.01,WeatherCatV1.02B3,2013-06-30 04:21:00,
2013-06-29 23:26:00,74.2,67.3,29.78,NW,317,0.0,0.0,79,0.00,,,0.01,WeatherCatV1.02B3,2013-06-30 04:26:00,
2013-06-29 23:31:00,74.0,67.4,29.78,NW,317,0.0,0.0,80,0.00,,,0.01,WeatherCatV1.02B3,2013-06-30 04:31:00,
2013-06-29 23:36:00,73.9,67.3,29.78,NW,317,0.0,0.0,80,0.00,,,0.01,WeatherCatV1.02B3,2013-06-30 04:36:00,
2013-06-29 23:41:00,73.7,67.1,29.78,NW,317,0.0,0.0,80,0.00,,,0.01,WeatherCatV1.02B3,2013-06-30 04:41:00,
2013-06-29 23:46:00,73.6,67.0,29.78,NW,317,0.0,0.0,80,0.00,,,0.01,WeatherCatV1.02B3,2013-06-30 04:46:00,
2013-06-29 23:51:00,73.4,67.2,29.78,NW,317,0.0,0.0,81,0.00,,,0.01,WeatherCatV1.02B3,2013-06-30 04:51:00,
2013-06-29 23:56:00,73.3,67.1,29.78,NW,317,0.0,0.0,81,0.00,,,0.01,WeatherCatV1.02B3,2013-06-30 04:56:00,